Regional Weather Roundup
Issued by NWS

Home | Current Version | Previous Version | Graphics & Text | Print | Product List | Glossary On
Versions: 1 2 3 4 5 6 7 8 9 10 11 12 13 14 15 16 17 18 19 20 21 22 23 24 25 26 27 28 29 30 31 32 33 34 35 36 37 38 39 40 41 42 43 44 45 46 47 48 49 50
000
ASUS43 KFSD 310602
RWRSD

WEATHER ROUNDUP FOR SOUTH DAKOTA
NATIONAL WEATHER SERVICE SIOUX FALLS SD
100 AM CDT WED AUG 31 2016

NOTE: "FAIR" INDICATES FEW OR NO CLOUDS BELOW 12,000 FEET WITH NO
SIGNIFICANT WEATHER AND/OR OBSTRUCTIONS TO VISIBILITY.


SDZ001>005-009-010-012>017-310700-
NORTHWEST AND NORTH CENTRAL SOUTH DAKOTA

CITY           SKY/WX    TMP DP  RH WIND       PRES   REMARKS
BUFFALO          N/A     68  59  73 S8        30.10S
MOBRIDGE       CLEAR     69  58  67 SE8       30.16R
$$

SDZ012>016-024>037-041>051-057-063-072>074-310700-
SOUTHWEST AND SOUTH CENTRAL SOUTH DAKOTA

CITY           SKY/WX    TMP DP  RH WIND       PRES   REMARKS
RAPID CTY ARPT CLEAR     63  56  78 S3        30.21S
PIERRE         CLEAR     68  64  87 SE10      30.15S
CUSTER         CLEAR     61  50  67 CALM      30.36S
ELLSWORTH AFB  CLEAR     68  58  70 S8        30.20S
PHILIP         CLEAR     67  62  84 E6        30.17R
PINE RIDGE     CLEAR     65  58  78 SE5       30.23S
WINNER         FAIR      72  65  78 S12       30.19S
$$

SDZ004>011-016>023-039-040-310700-
NORTHEAST SOUTH DAKOTA

CITY           SKY/WX    TMP DP  RH WIND       PRES   REMARKS
ABERDEEN       MOCLDY    64  55  72 CALM      30.20R
WATERTOWN      FAIR      62  57  83 CALM      30.22S
SISSETON         N/A     56  54  93 CALM      30.21R
$$

SDZ017-020-022-023-036>040-048>070-310700-
SOUTHEAST SOUTH DAKOTA

CITY           SKY/WX    TMP DP  RH WIND       PRES   REMARKS
SIOUX FALLS    FAIR      62  59  90 CALM      30.20S
HURON          PTCLDY    68  61  78 SE6       30.19S
CHAMBERLAIN    PTCLDY    68  67  96 SE6       30.18F
MITCHELL       PTCLDY    67  64  90 SE5       30.19S
YANKTON        FAIR      68  64  88 E3        30.18R
$$

ABBREVIATIONS USED IN REMARKS
   TC - TEMPERATURE IN CELSIUS
  WCI - WIND CHILL INDEX
   HX - HEAT INDEX
  VSB - VISIBILITY





USA.gov is the U.S. government's official web portal to all federal, state and local government web resources and services.